Вернуться в каталог

THOR ABLESTAR DEB

АктивенLEO
NORAD 354·DEBRIS·🇺🇸 United States

Запущен Jun 29, 1961 с Cape Canaveral Space Force Station

Loading…

Ближайшие Пролёты (ближайшие 24 часа)

TLE

СвежийSource: Space-Track

Эпоха: Sep 14, 2026, 10:10 UTC

1 00354U 61015DU  26257.42397142  .00000160  00000-0  32862-3 0  9990
2 00354  67.0647 259.1642 0172028 247.7467 185.2191 13.49482660489911

Отслеживайте THOR ABLESTAR DEB в реальном времени с AllMySat

Download on the App Store